TimeEDT,TemperatureF,Dew PointF,Humidity,Sea Level PressureIn,VisibilityMPH,Wind Direction,Wind SpeedMPH,Gust SpeedMPH,PrecipitationIn,Events,Conditions,WindDirDegrees,DateUTC
12:14 AM,42.8,39.2,87,30.11,10.0,West,5.8,-,N/A,,Overcast,270,2012-10-07 04:14:00
12:34 AM,42.8,39.2,87,30.10,10.0,West,6.9,-,N/A,,Overcast,270,2012-10-07 04:34:00
12:54 AM,42.8,39.2,87,30.10,10.0,West,4.6,-,N/A,,Overcast,270,2012-10-07 04:54:00
1:14 AM,42.8,39.2,87,30.10,10.0,West,5.8,-,N/A,,Overcast,260,2012-10-07 05:14:00
1:34 AM,42.8,39.2,87,30.10,10.0,West,4.6,-,N/A,,Overcast,280,2012-10-07 05:34:00
1:54 AM,42.8,39.2,87,30.10,10.0,West,3.5,-,N/A,,Overcast,260,2012-10-07 05:54:00
2:14 AM,42.8,39.2,87,30.10,10.0,West,3.5,-,N/A,,Overcast,260,2012-10-07 06:14:00
2:35 AM,42.8,39.2,87,30.10,10.0,West,3.5,-,N/A,,Overcast,260,2012-10-07 06:35:00
2:55 AM,42.8,39.2,87,30.10,10.0,West,3.5,-,N/A,,Overcast,260,2012-10-07 06:55:00
3:15 AM,42.8,39.2,87,30.09,10.0,West,3.5,-,N/A,,Overcast,280,2012-10-07 07:15:00
3:35 AM,42.8,39.2,87,30.09,10.0,West,4.6,-,N/A,,Overcast,280,2012-10-07 07:35:00
3:55 AM,42.8,39.2,87,30.09,10.0,West,3.5,-,N/A,,Overcast,280,2012-10-07 07:55:00
4:15 AM,42.8,39.2,87,30.08,10.0,West,4.6,-,N/A,,Overcast,280,2012-10-07 08:15:00
4:35 AM,42.8,39.2,87,30.08,10.0,Calm,Calm,-,N/A,,Overcast,0,2012-10-07 08:35:00
4:55 AM,42.8,39.2,87,30.07,10.0,Calm,Calm,-,N/A,,Overcast,0,2012-10-07 08:55:00
5:15 AM,42.8,39.2,87,30.07,10.0,Calm,Calm,-,N/A,,Overcast,0,2012-10-07 09:15:00
5:35 AM,42.8,39.2,87,30.08,10.0,Calm,Calm,-,N/A,,Overcast,0,2012-10-07 09:35:00
5:56 AM,42.8,39.2,87,30.08,10.0,Calm,Calm,-,N/A,,Overcast,0,2012-10-07 09:56:00
6:11 AM,41.0,39.2,93,30.08,10.0,Calm,Calm,-,N/A,,Overcast,0,2012-10-07 10:11:00
6:31 AM,41.0,39.2,93,30.08,10.0,WSW,3.5,-,N/A,,Overcast,250,2012-10-07 10:31:00
6:51 AM,41.0,39.2,93,30.09,10.0,WNW,4.6,-,N/A,,Overcast,290,2012-10-07 10:51:00
7:11 AM,41.0,39.2,93,30.09,10.0,West,4.6,-,N/A,,Overcast,260,2012-10-07 11:11:00
7:31 AM,41.0,39.2,93,30.09,10.0,WNW,3.5,-,N/A,,Overcast,290,2012-10-07 11:31:00
7:51 AM,41.0,39.2,93,30.09,10.0,Calm,Calm,-,N/A,,Mostly Cloudy,0,2012-10-07 11:51:00
8:11 AM,41.0,37.4,87,30.09,10.0,Calm,Calm,-,N/A,,Scattered Clouds,0,2012-10-07 12:11:00
8:31 AM,41.0,39.2,93,30.10,10.0,Calm,Calm,-,N/A,,Mostly Cloudy,0,2012-10-07 12:31:00
8:51 AM,41.0,39.2,93,30.10,10.0,Calm,Calm,-,N/A,,Mostly Cloudy,0,2012-10-07 12:51:00
9:12 AM,42.8,39.2,87,30.11,10.0,Calm,Calm,-,N/A,,Scattered Clouds,0,2012-10-07 13:12:00
9:32 AM,42.8,37.4,81,30.11,10.0,Calm,Calm,-,N/A,,Clear,0,2012-10-07 13:32:00
9:52 AM,42.8,37.4,81,30.11,10.0,Calm,Calm,-,N/A,,Scattered Clouds,0,2012-10-07 13:52:00
10:12 AM,44.6,37.4,76,30.11,10.0,Calm,Calm,-,N/A,,Mostly Cloudy,0,2012-10-07 14:12:00
10:32 AM,44.6,37.4,76,30.10,10.0,Calm,Calm,-,N/A,,Overcast,0,2012-10-07 14:32:00
10:52 AM,44.6,35.6,71,30.11,10.0,Calm,Calm,-,N/A,,Overcast,0,2012-10-07 14:52:00
11:12 AM,44.6,35.6,71,30.11,10.0,Calm,Calm,-,N/A,,Overcast,0,2012-10-07 15:12:00
11:32 AM,46.4,37.4,71,30.11,10.0,Calm,Calm,-,N/A,,Overcast,0,2012-10-07 15:32:00
11:52 AM,46.4,37.4,71,30.11,10.0,Calm,Calm,-,N/A,,Overcast,0,2012-10-07 15:52:00
12:13 PM,46.4,35.6,66,30.11,10.0,SW,4.6,-,N/A,,Overcast,220,2012-10-07 16:13:00
12:33 PM,46.4,37.4,71,30.11,10.0,West,3.5,-,N/A,,Light Drizzle,270,2012-10-07 16:33:00
12:53 PM,46.4,35.6,66,30.11,10.0,SW,5.8,-,N/A,,Overcast,230,2012-10-07 16:53:00
1:13 PM,46.4,37.4,71,30.11,10.0,Calm,Calm,-,N/A,,Overcast,0,2012-10-07 17:13:00
1:33 PM,46.4,37.4,71,30.10,10.0,Calm,Calm,-,N/A,,Overcast,0,2012-10-07 17:33:00
1:53 PM,46.4,37.4,71,30.10,10.0,SW,5.8,-,N/A,Rain,Light Rain,220,2012-10-07 17:53:00
2:13 PM,46.4,37.4,71,30.09,10.0,SW,8.1,-,N/A,,Light Drizzle,230,2012-10-07 18:13:00
2:33 PM,44.6,37.4,76,30.09,7.0,WSW,5.8,-,N/A,Rain,Rain,240,2012-10-07 18:33:00
2:53 PM,46.4,37.4,71,30.09,10.0,SW,10.4,-,N/A,,Overcast,230,2012-10-07 18:53:00
3:13 PM,46.4,39.2,76,30.08,10.0,SW,9.2,17.3,N/A,,Overcast,230,2012-10-07 19:13:00
3:34 PM,46.4,37.4,71,30.08,10.0,WSW,11.5,-,N/A,,Overcast,240,2012-10-07 19:34:00
3:54 PM,46.4,39.2,76,30.08,10.0,West,5.8,-,N/A,,Overcast,280,2012-10-07 19:54:00
4:14 PM,48.2,39.2,71,30.08,10.0,West,11.5,-,N/A,,Overcast,270,2012-10-07 20:14:00
4:34 PM,46.4,39.2,76,30.08,10.0,West,8.1,-,N/A,,Overcast,280,2012-10-07 20:34:00
4:54 PM,46.4,39.2,76,30.08,10.0,West,6.9,-,N/A,,Overcast,280,2012-10-07 20:54:00
5:14 PM,46.4,39.2,76,30.08,10.0,WNW,9.2,-,N/A,,Overcast,290,2012-10-07 21:14:00
5:34 PM,46.4,39.2,76,30.08,10.0,WNW,5.8,-,N/A,,Overcast,300,2012-10-07 21:34:00
5:54 PM,46.4,39.2,76,30.08,10.0,WNW,4.6,-,N/A,,Overcast,290,2012-10-07 21:54:00
6:14 PM,46.4,39.2,76,30.09,10.0,WNW,5.8,-,N/A,,Overcast,300,2012-10-07 22:14:00
6:35 PM,46.4,39.2,76,30.09,10.0,West,6.9,-,N/A,,Overcast,280,2012-10-07 22:35:00
6:55 PM,46.4,39.2,76,30.09,10.0,WNW,4.6,-,N/A,,Overcast,300,2012-10-07 22:55:00
7:15 PM,44.6,39.2,81,30.10,10.0,West,3.5,-,N/A,,Overcast,280,2012-10-07 23:15:00
7:35 PM,44.6,39.2,81,30.10,10.0,West,3.5,-,N/A,,Overcast,270,2012-10-07 23:35:00
7:55 PM,44.6,39.2,81,30.10,10.0,West,3.5,-,N/A,,Overcast,270,2012-10-07 23:55:00
8:15 PM,44.6,39.2,81,30.11,10.0,WSW,3.5,-,N/A,,Overcast,250,2012-10-08 00:15:00
8:35 PM,44.6,39.2,81,30.11,10.0,WSW,4.6,-,N/A,,Overcast,250,2012-10-08 00:35:00
8:50 PM,44.6,39.2,81,30.11,10.0,WSW,3.5,-,N/A,,Overcast,250,2012-10-08 00:50:00
9:12 PM,42.8,39.2,87,30.12,10.0,West,3.5,-,N/A,,Overcast,280,2012-10-08 01:12:00
9:32 PM,41.0,39.2,93,30.13,10.0,West,4.6,-,N/A,,Scattered Clouds,270,2012-10-08 01:32:00
9:52 PM,39.2,39.2,100,30.13,10.0,West,3.5,-,N/A,,Scattered Clouds,260,2012-10-08 01:52:00
10:13 PM,39.2,39.2,100,30.13,10.0,Calm,Calm,-,N/A,,Scattered Clouds,0,2012-10-08 02:13:00
10:33 PM,39.2,37.4,93,30.14,10.0,WSW,3.5,-,N/A,,Scattered Clouds,250,2012-10-08 02:33:00
10:53 PM,39.2,39.2,100,30.14,10.0,Calm,Calm,-,N/A,,Mostly Cloudy,0,2012-10-08 02:53:00
11:13 PM,41.0,39.2,93,30.14,10.0,West,4.6,-,N/A,,Overcast,270,2012-10-08 03:13:00
11:33 PM,41.0,39.2,93,30.14,10.0,Calm,Calm,-,N/A,,Overcast,0,2012-10-08 03:33:00
11:53 PM,41.0,39.2,93,30.15,10.0,West,4.6,-,N/A,,Overcast,260,2012-10-08 03:53:00